This is the latest recevied weather packets stored in our database for station/object SV3AQT-13. If no packets are shown the sender has not sent any weather packets the latest 10 day(s).
| Time | Temp. | Humidity | Pressure | Rain* | Wind** | Luminosity | Snow |
|---|---|---|---|---|---|---|---|
| 1788526973 | 30.56° C | 68% | 1016.5 hPa | 0 mm | 3.13 m/s, 57° | - | - |
| 1788526794 | 30.56° C | 67% | 1016.5 hPa | 0 mm | 2.24 m/s, 82° | - | - |
| 1788526614 | 30.56° C | 68% | 1016.5 hPa | 0 mm | 3.13 m/s, 51° | - | - |
| 1788526433 | 30° C | 70% | 1016.5 hPa | 0 mm | 3.13 m/s, 77° | - | - |
| 1788526255 | 30° C | 71% | 1016.5 hPa | 0 mm | 2.24 m/s, 70° | - | - |
| 1788526073 | 29.44° C | 70% | 1016.5 hPa | 0 mm | 3.13 m/s, 66° | - | - |
| 1788525893 | 30° C | 69% | 1016.5 hPa | 0 mm | 2.68 m/s, 65° | - | - |
| 1788525714 | 30° C | 69% | 1016.5 hPa | 0 mm | 3.13 m/s, 71° | - | - |
| 1788525534 | 30° C | 69% | 1016.5 hPa | 0 mm | 3.13 m/s, 83° | - | - |
| 1788525353 | 30° C | 71% | 1016.9 hPa | 0 mm | 3.13 m/s, 59° | - | - |
| 1788525174 | 29.44° C | 71% | 1016.9 hPa | 0 mm | 2.68 m/s, 64° | - | - |
| 1788524998 | 30° C | 72% | 1016.9 hPa | 0 mm | 1.34 m/s, 76° | - | - |
| 1788524815 | 30° C | 71% | 1016.9 hPa | 0 mm | 2.24 m/s, 61° | - | - |
| 1788524633 | 30° C | 70% | 1016.9 hPa | 0 mm | 2.24 m/s, 76° | - | - |
| 1788524453 | 30° C | 69% | 1016.9 hPa | 0 mm | 2.68 m/s, 73° | - | - |
| 1788524273 | 30.56° C | 71% | 1016.9 hPa | 0 mm | 2.24 m/s, 61° | - | - |
| 1788524093 | 30.56° C | 71% | 1016.9 hPa | 0 mm | 2.68 m/s, 70° | - | - |
| 1788523913 | 30.56° C | 69% | 1016.9 hPa | 0 mm | 2.24 m/s, 61° | - | - |
| 1788523734 | 30.56° C | 70% | 1016.9 hPa | 0 mm | 2.68 m/s, 63° | - | - |
| 1788523554 | 30.56° C | 71% | 1016.9 hPa | 0 mm | 0.89 m/s, 67° | - | - |
| 1788523374 | 30.56° C | 72% | 1016.9 hPa | 0 mm | 0.89 m/s, 68° | - | - |
| 1788523193 | 31.11° C | 68% | 1016.9 hPa | 0 mm | 1.34 m/s, 58° | - | - |
| 1788523014 | 30.56° C | 67% | 1016.9 hPa | 0 mm | 2.68 m/s, 81° | - | - |
| 1788522833 | 30.56° C | 69% | 1016.9 hPa | 0 mm | 1.79 m/s, 76° | - | - |
| 1788522653 | 30.56° C | 70% | 1016.9 hPa | 0 mm | 1.79 m/s, 68° | - | - |
* Rain latest hour (hover to see other rain measurements)
** Current wind speed in m/s (hover to see current wind gust speed)